User: anonymous   Login
Location: Caltech
(34.1382°N, 118.1253°W)
Time: 22:22:27
(UTC-08:00)
Language:

DELTA 2 R/B (1) - Orbit

View from above orbital plane
View from above orbital plane
View from above satellite
View from above satellite

Ground track
Ground track

The orbit data is extracted from the following two-line orbital elements,

1 27665U 03005C   17347.34465003 -.00000140  00000-0 -21657-4 0  9993
2 27665  39.5763 278.0178 0008232 347.5796 161.7047 14.28462652776556
Epoch (UTC): 13 December 2017 08:16:17
Eccentricity: 0.0008232
inclination: 39.5763°
perigee height: 791 km
apogee height: 803 km
right ascension of ascending node: 278.0178°
argument of perigee: 347.5796°
revolutions per day: 14.28462652
mean anomaly at epoch: 161.7047°
orbit number at epoch: 77655

The dashed part of the orbit path shows where the satellite is in the earth's shadow,  

DLR